This is the latest recevied weather packets stored in our database for station/object N4BBA. If no packets are shown the sender has not sent any weather packets the latest 10 day(s).
| Time | Temp. | Humidity | Pressure | Rain* | Wind** | Luminosity | Snow |
|---|---|---|---|---|---|---|---|
| 1777986184 | 18.89° C | 74% | 1017.2 hPa | 0 mm | - | 302 W/m² | - |
| 1777985880 | 18.89° C | 75% | 1017.2 hPa | 0 mm | - | 323 W/m² | - |
| 1777985578 | 18.89° C | 76% | 1017.3 hPa | 0 mm | - | 327 W/m² | - |
| 1777985274 | 18.33° C | 77% | 1017.2 hPa | 0 mm | - | 299 W/m² | - |
| 1777984971 | 17.78° C | 78% | 1017.1 hPa | 0 mm | - | 280 W/m² | - |
| 1777984666 | 17.78° C | 78% | 1017 hPa | 0 mm | - | 273 W/m² | - |
| 1777984363 | 17.22° C | 79% | 1017.2 hPa | 0 mm | - | 262 W/m² | - |
| 1777984060 | 17.22° C | 81% | 1017 hPa | 0 mm | - | 189 W/m² | - |
| 1777983757 | 16.67° C | 82% | 1017 hPa | 0 mm | - | 186 W/m² | - |
| 1777983454 | 16.11° C | 83% | 1017.2 hPa | 0 mm | - | 197 W/m² | - |
| 1777983150 | 15.56° C | 85% | 1017 hPa | 0 mm | - | 73 W/m² | - |
| 1777982847 | 15° C | 85% | 1017 hPa | 0 mm | - | 62 W/m² | - |
| 1777982543 | 14.44° C | 86% | 1017 hPa | 0 mm | - | 59 W/m² | - |
| 1777982241 | 14.44° C | 87% | 1016.9 hPa | 0 mm | - | 56 W/m² | - |
| 1777981940 | 13.89° C | 87% | 1017 hPa | 0 mm | - | 54 W/m² | - |
| 1777981637 | 13.89° C | 88% | 1016.9 hPa | 0 mm | - | 49 W/m² | - |
| 1777981332 | 13.33° C | 89% | 1016.8 hPa | 0 mm | - | 43 W/m² | - |
| 1777981029 | 13.33° C | 89% | 1016.8 hPa | 0 mm | - | 38 W/m² | - |
| 1777980726 | 12.78° C | 90% | 1016.7 hPa | 0 mm | - | 40 W/m² | - |
| 1777980422 | 12.78° C | 90% | 1016.7 hPa | 0 mm | - | 40 W/m² | - |
| 1777980120 | 12.22° C | 90% | 1016.6 hPa | 0 mm | - | 40 W/m² | - |
| 1777979819 | 11.67° C | 90% | 1016.8 hPa | 0 mm | - | 38 W/m² | - |
| 1777979515 | 11.11° C | 90% | 1016.6 hPa | 0 mm | - | 35 W/m² | - |
| 1777979212 | 11.11° C | 90% | 1016.6 hPa | 0 mm | - | 31 W/m² | - |
| 1777978909 | 10.56° C | 89% | 1016.6 hPa | 0 mm | - | 27 W/m² | - |
* Rain latest hour (hover to see other rain measurements)
** Current wind speed in m/s (hover to see current wind gust speed)